Погода Идринское

Погода Идринское : погода сейчас, прогноз погоды и архив. Всё, что Вы хотите узнать о погоде Идринское!

Хотите узнать прогноз погоды Идринское? Тогда Вам сюда: Погода Идринское

Поиск расширенной информации на нашем сайте:

Другие новости

Новости СМИ2

Главная страница сайта

Новости сайта

02.10.2013

Напоминаем, что на нашем новом сайте вы можете получить высокодетализированные прогнозы погоды по пунктам России, СНГ и мира (включающие важные для авиации метеовеличины, такие как направление и скорость ветра, видимость, явления погоды, количество и форма облачности, нижняя и верхняя граница облачности), а также ознакомиться с разнообразными материалами по авиационной метеорологии и подборкой полезных ссылок на эту тему.

Сайт Метеоцентр.Азия посвящён разработке технологий оптимизации авиаметеорологического обслуживания, включая проектирование и перспективное создание нескольких автоматизированных авиаметеорологических систем:
- система выпуска высокодетальных прогностических карт явлений погоды для нижнего воздушного пространства по России и ближнему зарубежью;
- система верификации прогнозов TAF (выпускаемых синоптиками официальных АМСГ РФ и ближнего зарубежья) и AUTOTAF (выпускаемых сайтом Метеоцентр.Азия) - выявление ошибок, онлайн-сопоставление с фактической погодой METAR, автоматическое внесение коррективов в прогнозы при резком отклонении фактической погоды от прогноза, подсчёт оправдываемости прогнозов по элементам и в целом;
- система обработки, анализа и отображения авиаметеорологической информации для применения провайдерами метеорологической информации.


Погода Идринское - сегодня

Время (UTC), дата Ветер
(°,м/с) 
Видим.   Явления Облачность Т
(°С)
Тd
(°С)
f(%) Тe
(°С)
Pmin
(гПа)
dP
(гПа)
Po
(мм)
O2
(г/м3)
Тmin Tmax R s Состояние
почвы
15 20.01.17 100 (В) 20000 м    3/0 верхняя 
[Ci fib]
-22.3 -24.1 85 -23  1036.4  -0.6  748  330           
18 20.01.17 100 (В) 20000 м    ясно 
-23.3 -25.2 84 -24  1035.9  -0.6  748  331           
21 20.01.17 110 (В) 20000 м    3/0 верхняя 
[Ci fib]
-22.8 -24.6 85 -23  1035.1  -0.7  747  330           
00 21.01.17 100 (В) 20000 м    9/0 верхняя 
[Ci fib]
-19.3 -20.8 88 -20  1033.3  -1.2  746  325  -24.1      29  неравномерный
сухой снег
100% 
03 21.01.17 060 (СВ) 20000 м    9/4 2000 м средняя, верхняя 
[Ac trans|Cc]
-18.9 -20.4 88 -19  1032.1  -1.1  745  324           
06 21.01.17 090 (В) 20000 м    9/3 2000 м средняя, верхняя 
[Ac trans|Ci fib]
-13.1 -17 72 -13  1029.7  -1.4  744  316           
09 21.01.17 тихо ()   20000 м    9/0 верхняя 
[Ci fib]
-12.1 -16.4 70 -12  1027.5  -2  743  314           
12 21.01.17 060 (СВ) 20000 м    9/0 верхняя 
[Ci sp]
-12.5 -14.9 82 -12  1026.3  -1.1  742  315    -8.6       
15 21.01.17 120 (ЮВ) 20000 м    ясно 
-16.4 -17.9 88 -17  1025.4  -1.4  741  319           
18 21.01.17 тихо ()   20000 м    ясно 
-17 -18.5 88 -17  1024.6  -0.8  740  319           
21 21.01.17 тихо ()   20000 м    10/10 2000 м 
[As trans]
-12.8 -14.8 85 -13  1024.4  0.4  740  314           
00 22.01.17 140 (ЮВ) 20000 м    10/4 1000 м средняя 
[Sc|Ac As]
-6.9 -12 67 -10  1025.1  1.5  742  308  -17.8      29  неравномерный
сухой снег
100% 
03 22.01.17 130 (ЮВ) 20000 м    10/3 1000 м средняя 
[Sc|Ac As]
-8 -12.2 72 -8  1027.3  1.9  743  310           
06 22.01.17 120 (ЮВ) 20000 м  в посл. час снег  10/10 2000 м 
[Ns]
-5.8 -9.8 73 -7  1027.4  0.4  743  307           
09 22.01.17 120 (ЮВ) 20000 м    10/10 2000 м 
[Ns]
-4.9 -9 73 -6  1026.9  -0.3  743  306           
12 22.01.17 120 (ЮВ) 20000 м    9/6 2000 м средняя, верхняя 
[Ac trans|Ci fib]
-7.8 -9.3 89 -9  1026.9  -0.4  743  309    -4.7  0.0     
15 22.01.17 130 (ЮВ) 20000 м    9/6 2000 м средняя, верхняя 
[Ac trans|Ci fib]
-9.8 -10.3 96 -12  1026.3  -0.8  742  311           
18 22.01.17 100 (В) 20000 м    10/10 2000 м 
[Ac As]
-12.5 -13 96 -12  1025.8  -0.9  741  314           
21 22.01.17 110 (В) 20000 м    9/4 2000 м средняя, верхняя 
[Ac trans|Ci fib]
-12.4 -12.9 96 -14  1025.4  -0.4  741  314           
00 23.01.17 120 (ЮВ) 20000 м    9/0 верхняя 
[Ci fib]
-14.7 -15.3 95 -17  1024.9  -0.8  741  317  -15.1      29  неравномерный
сухой снег
100% 
03 23.01.17 110 (В) 20000 м    8/3 2000 м средняя, верхняя 
[Ac trans|Ci fib]
-12.9 -13.9 92 -13  1024.1  -0.4  740  314  -15.3         
06 23.01.17 140 (ЮВ) 20000 м    8/3 2000 м средняя, верхняя 
[Ac trans|Ci fib]
-7.1 -11.2 72 -7  1021.5  -1.7  739  307           
09 23.01.17 150 (ЮВ) 20000 м    8/4 2000 м средняя, верхняя 
[Ac trans|Ci fib]
-7 -10.9 74 -7  1019.4  -2  737  306           
12 23.01.17 110 (В) 20000 м    9/0 верхняя 
[Ci fib]
-12.1 -14.3 84 -12  1018.2  -1.9  736  312    -4.2       
15 23.01.17 140 (ЮВ) 20000 м    ясно 
-15 -16.5 88 -17  1015.9  -2.7  734  314           
Время (UTC), дата Ветер
(°,м/с) 
Видим.   Явления Облачность Т
(°С)
Тd
(°С)
f(%) Тe
(°С)
Pmin
(гПа)
dP
(гПа)
Po
(мм)
O2
(г/м3)
Тmin Tmax R s Состояние
почвы

Для получения пояснительной информации подведите курсор к названию столбца.

ПОГОДА Идринское - архив

Всё, что Вы хотите узнать о погоде Идринское - удобно и подробно!

Выберите нужную дату (начиная с 1 января 2015* года) и нажмите кнопку "Найти".
Будут отображены архивные сводки погоды по пункту Идринское, начиная с указанной даты.


Отображать данные в формате CSV (для использования в таблицах Excel)


Внимание! Наш архив погоды предназначен исключительно для личного некоммерческого использования в познавательных целях. Если Вам необходимы официальные справки о состоянии погоды (для производственных, юридических, коммерческих и т.п. целей), обращайтесь в органы Росгидромета.

*Примечание: данная дата относится к архиву по метеостанциям СССР (Россия, СНГ, Балтия).
Архив по метеостанциям Зарубежной Европы и Азии (кроме Китая) хранится 10 дней, по другим регионам земного шара (Китай, Африка, Америка, Австралия, Океания) - 1 день.

Идринское - район местоположения метеостанции


Название, широта, долгота, высота метеостанции:
Идринское 54.4°ш. 92.1°д. 282 м над ур. моря [Российская Федерация]

Дополнительная информация

В oтличие oт бoльшинства пoгoдных сайтoв мы публикуем пoдрoбную метеoинфoрмацию в детальнoм прoфессиoнальнoм фoрмате.

Характеристики температуры и влажнoсти вoздуха измеряются на высoте 2 м в тени вдали oт зданий и деревьев.
Скoрoсть ветра измеряется на высoте 10 м (на урoвне рoста челoвека скoрoсть ветра ниже в 1.5-2 раза). Если метеoстанция нахoдится в гoрoде или в лесу, тo скoрoсть ветра занижена на 2-4 м/с пo сравнению с oткрытым местoм. Скoрoсть ветра над акватoриями крупных рек и oзёр, а также на вершинах хoлмoв на 2-5 м/с выше, чем в oбычных услoвиях.
Атмoсфернoе давление в разных тoчках местнoсти мoжет значительнo oтличаться oт давления на метеoстанции, в зависимoсти oт услoвий рельефа (при пoдъёме на 10 м давление пoнижается примернo на 1 мм рт.ст.).